{"data":{"norad_id":41896,"intl_designator":"2016-080A","name":"ARASE (ERG)","alt_names":[],"object_type":"PAYLOAD","status":"ACTIVE","operator":null,"country":"JPN","launch_date":"2016-12-20","launch_site_code":"KSCUT","launch_vehicle":null,"mission":null,"orbit_class":"UNKNOWN","rcs_meters":1.3395,"size_class":null,"mass_kg":null,"dimensions":null,"purposes":[],"wikipedia_slug":null,"has_3d_model":false,"image_url":null,"decayed_at":null,"tle_current":{"epoch":"2026-09-15T08:06:07.814016Z","epoch_age_seconds":490801,"freshness":"STALE","line1":"1 41896U 16080A   26258.33759044 -.00000184  00000+0  33096-3 0  9998","line2":"2 41896  31.9436 332.7793 6982815 101.8584 337.7892  2.57785867 90605","mean_motion":2.57785867,"eccentricity":0.6982815,"inclination_deg":31.9436,"raan_deg":332.7793,"arg_perigee_deg":101.8584,"mean_anomaly_deg":337.7892,"bstar":0.00033096,"rev_number":9060,"period_min":558.60316035091,"perigee_km":400.84340917145,"apogee_km":31778.678103344,"semimajor_km":22467.897756258,"source":"CELESTRAK","updated_at":"2026-09-20T09:00:14.166646Z"}}}